owner,sensor,date,latitude,longitude,vertical_datum,direction_of_sea_water_velocity,sea_water_speed,upward_sea_water_velocity,qcFlag 
TABS,ioos:station:wmo:42049:1,2015-08-01T00:00:00Z,28.3507,-96.0058,2.0,264.822082,9.197526841,-99999.0,'11133222,11111222,99999999' 
TABS,ioos:station:wmo:42049:1,2015-08-01T00:30:00Z,28.3507,-96.0058,2.0,268.0465202,11.73681814,-99999.0,'11111222,11111222,99999999' 
TABS,ioos:station:wmo:42049:1,2015-08-01T01:00:00Z,28.3507,-96.0058,2.0,277.6681658,11.39186113,-99999.0,'11111222,11111222,99999999' 
TABS,ioos:station:wmo:42049:1,2015-08-01T01:30:00Z,28.3507,-96.0058,2.0,279.462721,7.542625538,-99999.0,'11133222,11111222,99999999' 
TABS,ioos:station:wmo:42049:1,2015-08-01T02:00:00Z,28.3507,-96.0058,2.0,261.6682238,4.830983337,-99999.0,'11133222,11111222,99999999' 
TABS,ioos:station:wmo:42049:1,2015-08-01T02:30:00Z,28.3507,-96.0058,2.0,261.4229087,6.168986951,-99999.0,'11133222,11111222,99999999' 
TABS,ioos:station:wmo:42049:1,2015-08-01T03:00:00Z,28.3507,-96.0058,2.0,222.5502743,8.769064944,-99999.0,'11133222,11111222,99999999' 
TABS,ioos:station:wmo:42049:1,2015-08-01T03:30:00Z,28.3507,-96.0058,2.0,241.6622945,3.181210461,-99999.0,'11133222,11111222,99999999' 
TABS,ioos:station:wmo:42049:1,2015-08-01T04:00:00Z,28.3507,-96.0058,2.0,281.3103269,3.722284245,-99999.0,'11133222,11111222,99999999' 
TABS,ioos:station:wmo:42049:1,2015-08-01T04:30:00Z,28.3507,-96.0058,2.0,298.7886225,3.343202058,-99999.0,'11133222,11111222,99999999' 
TABS,ioos:station:wmo:42049:1,2015-08-01T05:00:00Z,28.3507,-96.0058,2.0,340.8750292,2.62488095,-99999.0,'11133222,11111222,99999999' 
TABS,ioos:station:wmo:42049:1,2015-08-01T05:30:00Z,28.3507,-96.0058,2.0,340.9813376,2.792436212,-99999.0,'11133222,11111222,99999999' 
TABS,ioos:station:wmo:42049:1,2015-08-01T06:00:00Z,28.3507,-96.0058,2.0,236.5121499,5.491566261,-99999.0,'11133222,11111222,99999999' 
TABS,ioos:station:wmo:42049:1,2015-08-01T06:30:00Z,28.3507,-96.0058,2.0,252.3111542,3.883606571,-99999.0,'11133222,11111222,99999999' 
TABS,ioos:station:wmo:42049:1,2015-08-01T07:00:00Z,28.3507,-96.0058,2.0,286.1554394,6.756811378,-99999.0,'11133222,11111222,99999999' 
TABS,ioos:station:wmo:42049:1,2015-08-01T07:30:00Z,28.3507,-96.0058,2.0,300.6597175,4.1966296,-99999.0,'11133222,11111222,99999999' 
TABS,ioos:station:wmo:42049:1,2015-08-01T08:00:00Z,28.3507,-96.0058,2.0,250.6869957,5.986894019,-99999.0,'11133222,11111222,99999999' 
TABS,ioos:station:wmo:42049:1,2015-08-01T08:30:00Z,28.3507,-96.0058,2.0,252.7516543,5.800862005,-99999.0,'11133222,11111222,99999999' 
TABS,ioos:station:wmo:42049:1,2015-08-01T09:00:00Z,28.3507,-96.0058,2.0,257.3159081,8.42560977,-99999.0,'11133222,11111222,99999999' 
TABS,ioos:station:wmo:42049:1,2015-08-01T09:30:00Z,28.3507,-96.0058,2.0,243.6532746,9.373665238,-99999.0,'11133222,11111222,99999999' 
TABS,ioos:station:wmo:42049:1,2015-08-01T10:00:00Z,28.3507,-96.0058,2.0,239.4154744,9.060469083,-99999.0,'11133222,11111222,99999999' 
TABS,ioos:station:wmo:42049:1,2015-08-01T10:30:00Z,28.3507,-96.0058,2.0,235.7571939,9.205677596,-99999.0,'11133222,11111222,99999999' 
TABS,ioos:station:wmo:42049:1,2015-08-01T11:00:00Z,28.3507,-96.0058,2.0,225.9887539,5.325307503,-99999.0,'11133222,11111222,99999999' 
TABS,ioos:station:wmo:42049:1,2015-08-01T11:30:00Z,28.3507,-96.0058,2.0,222.9256639,14.65378108,-99999.0,'11111222,11111222,99999999' 
TABS,ioos:station:wmo:42049:1,2015-08-01T12:00:00Z,28.3507,-96.0058,2.0,225.6867763,15.33117738,-99999.0,'11111222,11111222,99999999' 
TABS,ioos:station:wmo:42049:1,2015-08-01T12:30:00Z,28.3507,-96.0058,2.0,236.9898089,15.41897857,-99999.0,'11111222,11111222,99999999' 
TABS,ioos:station:wmo:42049:1,2015-08-01T13:00:00Z,28.3507,-96.0058,2.0,231.6066092,16.10168935,-99999.0,'11111222,11111222,99999999' 
TABS,ioos:station:wmo:42049:1,2015-08-01T13:30:00Z,28.3507,-96.0058,2.0,229.6277177,20.59445799,-99999.0,'11111222,11111222,99999999' 
TABS,ioos:station:wmo:42049:1,2015-08-01T14:00:00Z,28.3507,-96.0058,2.0,229.4012254,21.83621991,-99999.0,'11111222,11111222,99999999' 
TABS,ioos:station:wmo:42049:1,2015-08-01T14:30:00Z,28.3507,-96.0058,2.0,218.7234802,22.37971403,-99999.0,'11111222,11111222,99999999' 
TABS,ioos:station:wmo:42049:1,2015-08-01T15:00:00Z,28.3507,-96.0058,2.0,217.7048505,24.55860949,-99999.0,'11111222,11111222,99999999' 
TABS,ioos:station:wmo:42049:1,2015-08-01T15:30:00Z,28.3507,-96.0058,2.0,221.1203662,25.60643864,-99999.0,'11111222,11111222,99999999' 
TABS,ioos:station:wmo:42049:1,2015-08-01T16:00:00Z,28.3507,-96.0058,2.0,223.3819483,25.79846701,-99999.0,'11111222,11111222,99999999' 
TABS,ioos:station:wmo:42049:1,2015-08-01T16:30:00Z,28.3507,-96.0058,2.0,226.7725882,29.02648618,-99999.0,'11111222,11111222,99999999' 
TABS,ioos:station:wmo:42049:1,2015-08-01T17:00:00Z,28.3507,-96.0058,2.0,228.2734394,28.23134782,-99999.0,'11111222,11111222,99999999' 
TABS,ioos:station:wmo:42049:1,2015-08-01T17:30:00Z,28.3507,-96.0058,2.0,236.1413137,29.27442911,-99999.0,'11111222,11111222,99999999' 
TABS,ioos:station:wmo:42049:1,2015-08-01T18:00:00Z,28.3507,-96.0058,2.0,233.3243753,31.20818002,-99999.0,'11111222,11111222,99999999' 
TABS,ioos:station:wmo:42049:1,2015-08-01T18:30:00Z,28.3507,-96.0058,2.0,239.2148687,32.94160895,-99999.0,'11111222,11111222,99999999' 
TABS,ioos:station:wmo:42049:1,2015-08-01T19:00:00Z,28.3507,-96.0058,2.0,242.1397606,31.07139038,-99999.0,'11111222,11111222,99999999' 
TABS,ioos:station:wmo:42049:1,2015-08-01T19:30:00Z,28.3507,-96.0058,2.0,245.1821528,34.02194586,-99999.0,'11111222,11111222,99999999' 
TABS,ioos:station:wmo:42049:1,2015-08-01T20:00:00Z,28.3507,-96.0058,2.0,251.1501942,31.91137885,-99999.0,'11111222,11111222,99999999' 
TABS,ioos:station:wmo:42049:1,2015-08-01T20:30:00Z,28.3507,-96.0058,2.0,257.6820928,30.00060166,-99999.0,'11111222,11111222,99999999' 
TABS,ioos:station:wmo:42049:1,2015-08-01T21:00:00Z,28.3507,-96.0058,2.0,255.8323872,31.82803324,-99999.0,'11111222,11111222,99999999' 
TABS,ioos:station:wmo:42049:1,2015-08-01T21:30:00Z,28.3507,-96.0058,2.0,259.8002734,33.99723518,-99999.0,'11111222,11111222,99999999' 
TABS,ioos:station:wmo:42049:1,2015-08-01T22:00:00Z,28.3507,-96.0058,2.0,266.1673995,33.66527291,-99999.0,'11111222,11111222,99999999' 
TABS,ioos:station:wmo:42049:1,2015-08-01T22:30:00Z,28.3507,-96.0058,2.0,270.168827,30.62013227,-99999.0,'11111222,11111222,99999999' 
TABS,ioos:station:wmo:42049:1,2015-08-01T23:00:00Z,28.3507,-96.0058,2.0,269.5638792,28.93083649,-99999.0,'11111222,11111222,99999999' 
TABS,ioos:station:wmo:42049:1,2015-08-01T23:30:00Z,28.3507,-96.0058,2.0,264.8147291,21.68874362,-99999.0,'11111222,11111222,99999999' 
TABS,ioos:station:wmo:42049:1,2015-08-02T00:00:00Z,28.3507,-96.0058,2.0,269.1482607,24.90274884,-99999.0,'11111222,11111222,99999999' 
TABS,ioos:station:wmo:42049:1,2015-08-02T00:30:00Z,28.3507,-96.0058,2.0,263.4424236,29.16075788,-99999.0,'11111222,11111222,99999999' 
TABS,ioos:station:wmo:42049:1,2015-08-02T01:00:00Z,28.3507,-96.0058,2.0,262.2834883,25.24861382,-99999.0,'11111222,11111222,99999999' 
TABS,ioos:station:wmo:42049:1,2015-08-02T01:30:00Z,28.3507,-96.0058,2.0,271.1991087,22.94502125,-99999.0,'11111222,11111222,99999999' 
TABS,ioos:station:wmo:42049:1,2015-08-02T02:00:00Z,28.3507,-96.0058,2.0,249.0100707,9.436127384,-99999.0,'11133222,11111222,99999999' 
TABS,ioos:station:wmo:42049:1,2015-08-02T02:30:00Z,28.3507,-96.0058,2.0,265.0512569,16.23049291,-99999.0,'11111222,11111222,99999999' 
TABS,ioos:station:wmo:42049:1,2015-08-02T03:00:00Z,28.3507,-96.0058,2.0,270.800689,15.75153643,-99999.0,'11111222,11111222,99999999' 
TABS,ioos:station:wmo:42049:1,2015-08-02T03:30:00Z,28.3507,-96.0058,2.0,269.7837192,18.58013186,-99999.0,'11111222,11111222,99999999' 
TABS,ioos:station:wmo:42049:1,2015-08-02T04:00:00Z,28.3507,-96.0058,2.0,262.9989997,14.85071379,-99999.0,'11111222,11111222,99999999' 
TABS,ioos:station:wmo:42049:1,2015-08-02T04:30:00Z,28.3507,-96.0058,2.0,263.0808635,13.78034833,-99999.0,'11111222,11111222,99999999' 
TABS,ioos:station:wmo:42049:1,2015-08-02T05:00:00Z,28.3507,-96.0058,2.0,268.1314729,14.41766278,-99999.0,'11111222,11111222,99999999' 
TABS,ioos:station:wmo:42049:1,2015-08-02T05:30:00Z,28.3507,-96.0058,2.0,255.4700197,12.67538165,-99999.0,'11111222,11111222,99999999' 
TABS,ioos:station:wmo:42049:1,2015-08-02T06:00:00Z,28.3507,-96.0058,2.0,271.4502072,16.99544057,-99999.0,'11111222,11111222,99999999' 
TABS,ioos:station:wmo:42049:1,2015-08-02T06:30:00Z,28.3507,-96.0058,2.0,266.290703,11.59428307,-99999.0,'11111222,11111222,99999999' 
TABS,ioos:station:wmo:42049:1,2015-08-02T07:00:00Z,28.3507,-96.0058,2.0,264.3227395,11.82800913,-99999.0,'11111222,11111222,99999999' 
TABS,ioos:station:wmo:42049:1,2015-08-02T07:30:00Z,28.3507,-96.0058,2.0,263.7127004,13.05853361,-99999.0,'11111222,11111222,99999999' 
TABS,ioos:station:wmo:42049:1,2015-08-02T08:00:00Z,28.3507,-96.0058,2.0,260.169235,11.77285437,-99999.0,'11111222,11111222,99999999' 
TABS,ioos:station:wmo:42049:1,2015-08-02T08:30:00Z,28.3507,-96.0058,2.0,257.6858584,12.42586416,-99999.0,'11111222,11111222,99999999' 
TABS,ioos:station:wmo:42049:1,2015-08-02T09:00:00Z,28.3507,-96.0058,2.0,260.4493297,13.92296664,-99999.0,'11111222,11111222,99999999' 
TABS,ioos:station:wmo:42049:1,2015-08-02T09:30:00Z,28.3507,-96.0058,2.0,271.4996939,11.08379448,-99999.0,'11111222,11111222,99999999' 
TABS,ioos:station:wmo:42049:1,2015-08-02T10:00:00Z,28.3507,-96.0058,2.0,253.4749184,11.00451725,-99999.0,'11111222,11111222,99999999' 
TABS,ioos:station:wmo:42049:1,2015-08-02T10:30:00Z,28.3507,-96.0058,2.0,272.2365434,10.50800171,-99999.0,'11111222,11111222,99999999' 
TABS,ioos:station:wmo:42049:1,2015-08-02T11:00:00Z,28.3507,-96.0058,2.0,286.6919744,7.172203288,-99999.0,'11133222,11111222,99999999' 
TABS,ioos:station:wmo:42049:1,2015-08-02T11:30:00Z,28.3507,-96.0058,2.0,272.6675446,9.670475686,-99999.0,'11133222,11111222,99999999' 
TABS,ioos:station:wmo:42049:1,2015-08-02T12:00:00Z,28.3507,-96.0058,2.0,252.9167844,10.5870912,-99999.0,'11111222,11111222,99999999' 
TABS,ioos:station:wmo:42049:1,2015-08-02T12:30:00Z,28.3507,-96.0058,2.0,256.8010386,10.94922828,-99999.0,'11111222,11111222,99999999' 
TABS,ioos:station:wmo:42049:1,2015-08-02T13:00:00Z,28.3507,-96.0058,2.0,251.6795599,11.0395335,-99999.0,'11111222,11111222,99999999' 
TABS,ioos:station:wmo:42049:1,2015-08-02T13:30:00Z,28.3507,-96.0058,2.0,254.5111139,11.19661556,-99999.0,'11111222,11111222,99999999' 
TABS,ioos:station:wmo:42049:1,2015-08-02T14:00:00Z,28.3507,-96.0058,2.0,248.4043191,13.42214588,-99999.0,'11111222,11111222,99999999' 
TABS,ioos:station:wmo:42049:1,2015-08-02T14:30:00Z,28.3507,-96.0058,2.0,242.9892459,13.23345004,-99999.0,'11111222,11111222,99999999' 
TABS,ioos:station:wmo:42049:1,2015-08-02T15:00:00Z,28.3507,-96.0058,2.0,234.8780745,13.76640839,-99999.0,'11111222,11111222,99999999' 
TABS,ioos:station:wmo:42049:1,2015-08-02T15:30:00Z,28.3507,-96.0058,2.0,239.1500864,13.76793376,-99999.0,'11111222,11111222,99999999' 
TABS,ioos:station:wmo:42049:1,2015-08-02T16:00:00Z,28.3507,-96.0058,2.0,242.5217624,11.79004665,-99999.0,'11111222,11111222,99999999' 
TABS,ioos:station:wmo:42049:1,2015-08-02T16:30:00Z,28.3507,-96.0058,2.0,231.7987565,13.25957767,-99999.0,'11111222,11111222,99999999' 
TABS,ioos:station:wmo:42049:1,2015-08-02T17:00:00Z,28.3507,-96.0058,2.0,240.4218096,12.76322843,-99999.0,'11111222,11111222,99999999' 
TABS,ioos:station:wmo:42049:1,2015-08-02T17:30:00Z,28.3507,-96.0058,2.0,242.8825262,14.85265296,-99999.0,'11111222,11111222,99999999' 
TABS,ioos:station:wmo:42049:1,2015-08-02T18:00:00Z,28.3507,-96.0058,2.0,248.8439931,15.32269559,-99999.0,'11111222,11111222,99999999' 
TABS,ioos:station:wmo:42049:1,2015-08-02T18:30:00Z,28.3507,-96.0058,2.0,245.9126373,13.54982657,-99999.0,'11111222,11111222,99999999' 
TABS,ioos:station:wmo:42049:1,2015-08-02T19:00:00Z,28.3507,-96.0058,2.0,255.3707079,15.00648193,-99999.0,'11111222,11111222,99999999' 
TABS,ioos:station:wmo:42049:1,2015-08-02T19:30:00Z,28.3507,-96.0058,2.0,257.0647487,16.52943133,-99999.0,'11111222,11111222,99999999' 
TABS,ioos:station:wmo:42049:1,2015-08-02T20:00:00Z,28.3507,-96.0058,2.0,268.5646553,15.17475865,-99999.0,'11111222,11111222,99999999' 
TABS,ioos:station:wmo:42049:1,2015-08-02T20:30:00Z,28.3507,-96.0058,2.0,280.325655,17.57460099,-99999.0,'11111222,11111222,99999999' 
TABS,ioos:station:wmo:42049:1,2015-08-02T21:00:00Z,28.3507,-96.0058,2.0,281.2486819,16.4051242,-99999.0,'11111222,11111222,99999999' 
TABS,ioos:station:wmo:42049:1,2015-08-02T21:30:00Z,28.3507,-96.0058,2.0,286.3603973,14.2364216,-99999.0,'11111222,11111222,99999999' 
TABS,ioos:station:wmo:42049:1,2015-08-02T22:00:00Z,28.3507,-96.0058,2.0,291.4510274,13.04348496,-99999.0,'11111222,11111222,99999999' 
TABS,ioos:station:wmo:42049:1,2015-08-02T22:30:00Z,28.3507,-96.0058,2.0,296.9647426,13.47487291,-99999.0,'11111222,11111222,99999999' 
TABS,ioos:station:wmo:42049:1,2015-08-02T23:00:00Z,28.3507,-96.0058,2.0,294.4354295,16.00341526,-99999.0,'11111222,11111222,99999999' 
TABS,ioos:station:wmo:42049:1,2015-08-02T23:30:00Z,28.3507,-96.0058,2.0,305.6892525,11.45043231,-99999.0,'11111222,11111222,99999999' 
TABS,ioos:station:wmo:42049:1,2015-08-03T00:00:00Z,28.3507,-96.0058,2.0,299.9471294,9.8558612,-99999.0,'11133222,11111222,99999999' 
TABS,ioos:station:wmo:42049:1,2015-08-03T00:30:00Z,28.3507,-96.0058,2.0,292.1971428,9.687956441,-99999.0,'11133222,11111222,99999999' 
TABS,ioos:station:wmo:42049:1,2015-08-03T01:00:00Z,28.3507,-96.0058,2.0,280.8928145,9.419708063,-99999.0,'11133222,11111222,99999999' 
TABS,ioos:station:wmo:42049:1,2015-08-03T01:30:00Z,28.3507,-96.0058,2.0,278.7465627,8.41788572,-99999.0,'11133222,11111222,99999999' 
TABS,ioos:station:wmo:42049:1,2015-08-03T02:00:00Z,28.3507,-96.0058,2.0,277.3708717,8.106984643,-99999.0,'11133222,11111222,99999999' 
TABS,ioos:station:wmo:42049:1,2015-08-03T02:30:00Z,28.3507,-96.0058,2.0,275.2811176,9.018275888,-99999.0,'11133222,11111222,99999999' 
TABS,ioos:station:wmo:42049:1,2015-08-03T03:00:00Z,28.3507,-96.0058,2.0,291.9287803,5.864273186,-99999.0,'11133222,11111222,99999999' 
TABS,ioos:station:wmo:42049:1,2015-08-03T03:30:00Z,28.3507,-96.0058,2.0,271.6369941,4.901999592,-99999.0,'11133222,11111222,99999999' 
TABS,ioos:station:wmo:42049:1,2015-08-03T04:00:00Z,28.3507,-96.0058,2.0,273.2842755,3.66601964,-99999.0,'11133222,11111222,99999999' 
TABS,ioos:station:wmo:42049:1,2015-08-03T04:30:00Z,28.3507,-96.0058,2.0,266.4752874,6.181690707,-99999.0,'11133222,11111222,99999999' 
TABS,ioos:station:wmo:42049:1,2015-08-03T05:00:00Z,28.3507,-96.0058,2.0,275.3847935,4.369279117,-99999.0,'11133222,11111222,99999999' 
TABS,ioos:station:wmo:42049:1,2015-08-03T05:30:00Z,28.3507,-96.0058,2.0,292.6695711,6.253079241,-99999.0,'11133222,11111222,99999999' 
TABS,ioos:station:wmo:42049:1,2015-08-03T06:00:00Z,28.3507,-96.0058,2.0,269.5644306,3.950113922,-99999.0,'11133222,11111222,99999999' 
TABS,ioos:station:wmo:42049:1,2015-08-03T06:30:00Z,28.3507,-96.0058,2.0,273.9714217,5.342826967,-99999.0,'11133222,11111222,99999999' 
TABS,ioos:station:wmo:42049:1,2015-08-03T07:00:00Z,28.3507,-96.0058,2.0,270.2299083,7.49006008,-99999.0,'11133222,11111222,99999999' 
TABS,ioos:station:wmo:42049:1,2015-08-03T07:30:00Z,28.3507,-96.0058,2.0,262.4049535,2.875221731,-99999.0,'11133222,11111222,99999999' 
TABS,ioos:station:wmo:42049:1,2015-08-03T08:00:00Z,28.3507,-96.0058,2.0,320.1107213,3.492849839,-99999.0,'11133222,11111222,99999999' 
TABS,ioos:station:wmo:42049:1,2015-08-03T08:30:00Z,28.3507,-96.0058,2.0,298.6952582,1.083005078,-99999.0,'11133222,11111222,99999999' 
TABS,ioos:station:wmo:42049:1,2015-08-03T09:00:00Z,28.3507,-96.0058,2.0,334.384786,3.238271144,-99999.0,'11133222,11111222,99999999' 
TABS,ioos:station:wmo:42049:1,2015-08-03T09:30:00Z,28.3507,-96.0058,2.0,347.6343962,4.576166518,-99999.0,'11133222,11111222,99999999' 
TABS,ioos:station:wmo:42049:1,2015-08-03T10:30:00Z,28.3507,-96.0058,2.0,332.8217,5.429484322,-99999.0,'11133222,11111222,99999999' 
TABS,ioos:station:wmo:42049:1,2015-08-03T11:00:00Z,28.3507,-96.0058,2.0,347.2513257,3.67049043,-99999.0,'11133222,11111222,99999999' 
TABS,ioos:station:wmo:42049:1,2015-08-03T11:30:00Z,28.3507,-96.0058,2.0,301.1228183,2.476449071,-99999.0,'11133222,11111222,99999999' 
TABS,ioos:station:wmo:42049:1,2015-08-03T12:00:00Z,28.3507,-96.0058,2.0,334.5503243,3.67679208,-99999.0,'11133222,11111222,99999999' 
TABS,ioos:station:wmo:42049:1,2015-08-03T12:30:00Z,28.3507,-96.0058,2.0,4.574121023,0.752396172,-99999.0,'11133222,11111222,99999999' 
TABS,ioos:station:wmo:42049:1,2015-08-03T13:00:00Z,28.3507,-96.0058,2.0,312.5808121,3.517456467,-99999.0,'11133222,11111222,99999999' 
TABS,ioos:station:wmo:42049:1,2015-08-03T13:30:00Z,28.3507,-96.0058,2.0,342.1325698,1.597028491,-99999.0,'11133222,11111222,99999999' 
TABS,ioos:station:wmo:42049:1,2015-08-03T14:00:00Z,28.3507,-96.0058,2.0,123.1784341,0.621288983,-99999.0,'11133222,11111222,99999999' 
TABS,ioos:station:wmo:42049:1,2015-08-03T14:30:00Z,28.3507,-96.0058,2.0,297.2355039,0.764787552,-99999.0,'11133222,11111222,99999999' 
TABS,ioos:station:wmo:42049:1,2015-08-03T15:00:00Z,28.3507,-96.0058,2.0,355.6679066,0.66189123,-99999.0,'11133222,11111222,99999999' 
TABS,ioos:station:wmo:42049:1,2015-08-03T15:30:00Z,28.3507,-96.0058,2.0,355.8610309,1.523975065,-99999.0,'11133222,11111222,99999999' 
TABS,ioos:station:wmo:42049:1,2015-08-03T16:00:00Z,28.3507,-96.0058,2.0,22.60419061,5.56769252,-99999.0,'11133222,11111222,99999999' 
TABS,ioos:station:wmo:42049:1,2015-08-03T16:30:00Z,28.3507,-96.0058,2.0,45.49341348,5.748991216,-99999.0,'11133222,11111222,99999999' 
TABS,ioos:station:wmo:42049:1,2015-08-03T17:00:00Z,28.3507,-96.0058,2.0,33.39537001,3.233944959,-99999.0,'11133222,11111222,99999999' 
TABS,ioos:station:wmo:42049:1,2015-08-03T17:30:00Z,28.3507,-96.0058,2.0,19.87703617,5.529412265,-99999.0,'11133222,11111222,99999999' 
TABS,ioos:station:wmo:42049:1,2015-08-03T18:00:00Z,28.3507,-96.0058,2.0,2.592071103,4.864976876,-99999.0,'11133222,11111222,99999999' 
TABS,ioos:station:wmo:42049:1,2015-08-03T18:30:00Z,28.3507,-96.0058,2.0,22.41183785,5.927731438,-99999.0,'11133222,11111222,99999999' 
TABS,ioos:station:wmo:42049:1,2015-08-03T19:00:00Z,28.3507,-96.0058,2.0,15.71979931,6.274679275,-99999.0,'11133222,11111222,99999999' 
TABS,ioos:station:wmo:42049:1,2015-08-03T19:30:00Z,28.3507,-96.0058,2.0,30.55916386,7.76907974,-99999.0,'11133222,11111222,99999999' 
TABS,ioos:station:wmo:42049:1,2015-08-03T20:00:00Z,28.3507,-96.0058,2.0,22.84442417,7.856214101,-99999.0,'11133222,11111222,99999999' 
TABS,ioos:station:wmo:42049:1,2015-08-03T20:30:00Z,28.3507,-96.0058,2.0,17.48716272,7.454508703,-99999.0,'11133222,11111222,99999999' 
TABS,ioos:station:wmo:42049:1,2015-08-03T21:00:00Z,28.3507,-96.0058,2.0,23.54307991,7.210166434,-99999.0,'11133222,11111222,99999999' 
TABS,ioos:station:wmo:42049:1,2015-08-03T21:30:00Z,28.3507,-96.0058,2.0,35.46769733,7.600276311,-99999.0,'11133222,11111222,99999999' 
TABS,ioos:station:wmo:42049:1,2015-08-03T22:00:00Z,28.3507,-96.0058,2.0,36.46935957,8.294202795,-99999.0,'11133222,11111222,99999999' 
TABS,ioos:station:wmo:42049:1,2015-08-03T22:30:00Z,28.3507,-96.0058,2.0,40.37197851,8.938691179,-99999.0,'11133222,11111222,99999999' 
TABS,ioos:station:wmo:42049:1,2015-08-03T23:00:00Z,28.3507,-96.0058,2.0,34.39553805,9.913243667,-99999.0,'11133222,11111222,99999999' 
TABS,ioos:station:wmo:42049:1,2015-08-03T23:30:00Z,28.3507,-96.0058,2.0,40.75371819,8.976614061,-99999.0,'11133222,11111222,99999999' 
TABS,ioos:station:wmo:42049:1,2015-08-04T00:00:00Z,28.3507,-96.0058,2.0,51.6755936,8.272665834,-99999.0,'11133222,11111222,99999999' 
TABS,ioos:station:wmo:42049:1,2015-08-04T00:30:00Z,28.3507,-96.0058,2.0,51.20218734,6.479668201,-99999.0,'11133222,11111222,99999999' 
TABS,ioos:station:wmo:42049:1,2015-08-04T01:00:00Z,28.3507,-96.0058,2.0,58.78405269,6.232318991,-99999.0,'11133222,11111222,99999999' 
TABS,ioos:station:wmo:42049:1,2015-08-04T01:30:00Z,28.3507,-96.0058,2.0,17.13737853,4.886972478,-99999.0,'11133222,11111222,99999999' 
TABS,ioos:station:wmo:42049:1,2015-08-04T02:00:00Z,28.3507,-96.0058,2.0,62.93646704,6.681624054,-99999.0,'11133222,11111222,99999999' 
TABS,ioos:station:wmo:42049:1,2015-08-04T02:30:00Z,28.3507,-96.0058,2.0,46.91456721,5.079862203,-99999.0,'11133222,11111222,99999999' 
TABS,ioos:station:wmo:42049:1,2015-08-04T03:00:00Z,28.3507,-96.0058,2.0,41.73582914,3.72542615,-99999.0,'11133222,11111222,99999999' 
TABS,ioos:station:wmo:42049:1,2015-08-04T03:30:00Z,28.3507,-96.0058,2.0,36.76047012,5.23000956,-99999.0,'11133222,11111222,99999999' 
TABS,ioos:station:wmo:42049:1,2015-08-04T04:00:00Z,28.3507,-96.0058,2.0,27.67130291,6.718400107,-99999.0,'11133222,11111222,99999999' 
TABS,ioos:station:wmo:42049:1,2015-08-04T04:30:00Z,28.3507,-96.0058,2.0,61.48882038,2.765375201,-99999.0,'11133222,11111222,99999999' 
TABS,ioos:station:wmo:42049:1,2015-08-04T05:00:00Z,28.3507,-96.0058,2.0,32.40591019,4.702265411,-99999.0,'11133222,11111222,99999999' 
TABS,ioos:station:wmo:42049:1,2015-08-04T05:30:00Z,28.3507,-96.0058,2.0,23.49525817,6.596923525,-99999.0,'11133222,11111222,99999999' 
TABS,ioos:station:wmo:42049:1,2015-08-04T06:00:00Z,28.3507,-96.0058,2.0,22.16650445,4.664761516,-99999.0,'11133222,11111222,99999999' 
TABS,ioos:station:wmo:42049:1,2015-08-04T06:30:00Z,28.3507,-96.0058,2.0,12.13548101,3.94822745,-99999.0,'11133222,11111222,99999999' 
TABS,ioos:station:wmo:42049:1,2015-08-04T07:00:00Z,28.3507,-96.0058,2.0,18.61802264,7.924708197,-99999.0,'11133222,11111222,99999999' 
TABS,ioos:station:wmo:42049:1,2015-08-04T07:30:00Z,28.3507,-96.0058,2.0,18.37910872,6.470023184,-99999.0,'11133222,11111222,99999999' 
TABS,ioos:station:wmo:42049:1,2015-08-04T08:00:00Z,28.3507,-96.0058,2.0,28.53528033,9.106179221,-99999.0,'11133222,11111222,99999999' 
TABS,ioos:station:wmo:42049:1,2015-08-04T08:30:00Z,28.3507,-96.0058,2.0,60.52417992,5.548134822,-99999.0,'11133222,11111222,99999999' 
TABS,ioos:station:wmo:42049:1,2015-08-04T09:00:00Z,28.3507,-96.0058,2.0,35.01573311,9.951210982,-99999.0,'11133222,11111222,99999999' 
TABS,ioos:station:wmo:42049:1,2015-08-04T09:30:00Z,28.3507,-96.0058,2.0,34.0194809,11.09973423,-99999.0,'11111222,11111222,99999999' 
TABS,ioos:station:wmo:42049:1,2015-08-04T10:00:00Z,28.3507,-96.0058,2.0,34.58701912,9.037173231,-99999.0,'11133222,11111222,99999999' 
TABS,ioos:station:wmo:42049:1,2015-08-04T10:30:00Z,28.3507,-96.0058,2.0,47.61369725,13.33576395,-99999.0,'11111222,11111222,99999999' 
TABS,ioos:station:wmo:42049:1,2015-08-04T11:00:00Z,28.3507,-96.0058,2.0,39.10885074,14.94941136,-99999.0,'11111222,11111222,99999999' 
TABS,ioos:station:wmo:42049:1,2015-08-04T11:30:00Z,28.3507,-96.0058,2.0,40.46417004,14.0376102,-99999.0,'11111222,11111222,99999999' 
TABS,ioos:station:wmo:42049:1,2015-08-04T12:00:00Z,28.3507,-96.0058,2.0,39.73096318,15.70757779,-99999.0,'11111222,11111222,99999999' 
TABS,ioos:station:wmo:42049:1,2015-08-04T12:30:00Z,28.3507,-96.0058,2.0,46.7462329,16.47616764,-99999.0,'11111222,11111222,99999999' 
TABS,ioos:station:wmo:42049:1,2015-08-04T13:00:00Z,28.3507,-96.0058,2.0,55.43134466,15.19225131,-99999.0,'11111222,11111222,99999999' 
TABS,ioos:station:wmo:42049:1,2015-08-04T13:30:00Z,28.3507,-96.0058,2.0,54.60623485,12.96630248,-99999.0,'11111222,11111222,99999999' 
TABS,ioos:station:wmo:42049:1,2015-08-04T14:00:00Z,28.3507,-96.0058,2.0,46.12880181,14.71774779,-99999.0,'11111222,11111222,99999999' 
TABS,ioos:station:wmo:42049:1,2015-08-04T14:30:00Z,28.3507,-96.0058,2.0,49.13663403,13.037657,-99999.0,'11111222,11111222,99999999' 
TABS,ioos:station:wmo:42049:1,2015-08-04T15:00:00Z,28.3507,-96.0058,2.0,46.01380979,13.18960576,-99999.0,'11111222,11111222,99999999' 
TABS,ioos:station:wmo:42049:1,2015-08-04T15:30:00Z,28.3507,-96.0058,2.0,51.31840802,12.2721351,-99999.0,'11111222,11111222,99999999' 
TABS,ioos:station:wmo:42049:1,2015-08-04T16:00:00Z,28.3507,-96.0058,2.0,49.99726795,15.99190108,-99999.0,'11111222,11111222,99999999' 
TABS,ioos:station:wmo:42049:1,2015-08-04T16:30:00Z,28.3507,-96.0058,2.0,52.54028349,15.73483397,-99999.0,'11111222,11111222,99999999' 